Time,TemperatureF,DewpointF,PressureIn,WindDirection,WindDirectionDegrees,WindSpeedMPH,WindSpeedGustMPH,Humidity,HourlyPrecipIn,Conditions,Clouds,dailyrainin,SoftwareType,DateUTC
2014-08-23 00:01:00,75.7,66.5,29.91,North,0,0.0,0.0,73,0.00,RA,,0.00,WeatherDisplay:10.37,2014-08-23 04:01:00,
2014-08-23 00:02:00,75.7,66.5,29.92,North,0,0.0,0.0,73,0.00,RA,,0.00,WeatherDisplay:10.37,2014-08-23 04:02:00,
2014-08-23 00:03:00,75.7,66.5,29.92,North,0,0.0,0.0,73,0.00,RA,,0.00,WeatherDisplay:10.37,2014-08-23 04:03:00,
2014-08-23 00:08:00,75.7,66.5,29.92,North,0,0.0,0.0,73,0.00,RA,,0.00,WeatherDisplay:10.37,2014-08-23 04:08:00,
2014-08-23 00:13:00,75.7,66.9,29.92,North,0,0.0,0.0,74,0.00,CLR,,0.00,WeatherDisplay:10.37,2014-08-23 04:13:00,
2014-08-23 00:18:00,75.7,66.5,29.92,North,0,0.0,0.0,73,0.00,CLR,,0.00,WeatherDisplay:10.37,2014-08-23 04:18:00,
2014-08-23 00:23:00,75.9,66.6,29.92,North,0,0.0,0.0,73,0.00,CLR,,0.00,WeatherDisplay:10.37,2014-08-23 04:23:00,
2014-08-23 00:28:00,75.9,66.6,29.91,North,0,0.0,0.0,73,0.00,CLR,,0.00,WeatherDisplay:10.37,2014-08-23 04:28:00,
2014-08-23 00:33:00,75.9,66.6,29.92,North,0,0.0,0.0,73,0.00,CLR,,0.00,WeatherDisplay:10.37,2014-08-23 04:33:00,
2014-08-23 00:38:00,75.9,66.6,29.91,North,0,0.0,0.0,73,0.00,CLR,,0.00,WeatherDisplay:10.37,2014-08-23 04:38:00,
2014-08-23 00:43:00,75.9,66.2,29.91,North,0,0.0,0.0,72,0.00,CLR,,0.00,WeatherDisplay:10.37,2014-08-23 04:43:00,
2014-08-23 00:48:00,75.9,66.6,29.91,North,0,0.0,0.0,73,0.00,CLR,,0.00,WeatherDisplay:10.37,2014-08-23 04:48:00,
2014-08-23 00:53:00,75.9,66.2,29.91,North,0,0.0,0.0,72,0.00,CLR,,0.00,WeatherDisplay:10.37,2014-08-23 04:53:00,
2014-08-23 00:58:00,75.9,66.6,29.91,North,0,0.0,0.0,73,0.00,CLR,,0.00,WeatherDisplay:10.37,2014-08-23 04:58:00,
2014-08-23 01:03:00,75.9,66.6,29.91,North,0,0.0,0.0,73,0.00,CLR,,0.00,WeatherDisplay:10.37,2014-08-23 05:03:00,
2014-08-23 01:08:00,75.9,66.6,29.91,North,0,0.0,0.0,73,0.00,CLR,,0.00,WeatherDisplay:10.37,2014-08-23 05:08:00,
2014-08-23 01:13:00,75.7,66.5,29.91,North,0,0.0,0.0,73,0.00,CLR,,0.00,WeatherDisplay:10.37,2014-08-23 05:13:00,
2014-08-23 01:18:00,75.7,66.5,29.91,North,0,0.0,0.0,73,0.00,CLR,,0.00,WeatherDisplay:10.37,2014-08-23 05:18:00,
2014-08-23 01:23:00,75.7,66.9,29.91,North,0,0.0,0.0,74,0.00,CLR,,0.00,WeatherDisplay:10.37,2014-08-23 05:23:00,
2014-08-23 01:28:00,75.4,66.5,29.91,North,0,0.0,0.0,74,0.00,CLR,,0.00,WeatherDisplay:10.37,2014-08-23 05:28:00,
2014-08-23 01:33:00,75.4,66.1,29.91,North,0,0.0,0.0,73,0.00,CLR,,0.00,WeatherDisplay:10.37,2014-08-23 05:33:00,
2014-08-23 01:38:00,75.2,66.3,29.91,North,0,0.0,0.0,74,0.00,CLR,,0.00,WeatherDisplay:10.37,2014-08-23 05:38:00,
2014-08-23 01:43:00,75.0,66.2,29.90,North,0,0.0,0.0,74,0.00,CLR,,0.00,WeatherDisplay:10.37,2014-08-23 05:43:00,
2014-08-23 01:48:00,74.8,65.6,29.91,North,0,0.0,0.0,73,0.00,CLR,,0.00,WeatherDisplay:10.37,2014-08-23 05:48:00,
2014-08-23 01:53:00,74.7,65.4,29.91,North,0,0.0,0.0,73,0.00,CLR,,0.00,WeatherDisplay:10.37,2014-08-23 05:53:00,
2014-08-23 01:58:00,74.5,65.3,29.91,North,0,0.0,0.0,73,0.00,CLR,,0.00,WeatherDisplay:10.37,2014-08-23 05:58:00,
2014-08-23 02:03:00,74.3,65.1,29.91,North,0,0.0,0.0,73,0.00,CLR,,0.00,WeatherDisplay:10.37,2014-08-23 06:03:00,
2014-08-23 02:08:00,74.1,64.5,29.90,North,0,0.0,0.0,72,0.00,CLR,,0.00,WeatherDisplay:10.37,2014-08-23 06:08:00,
2014-08-23 02:13:00,74.1,64.5,29.90,North,0,0.0,0.0,72,0.00,CLR,,0.00,WeatherDisplay:10.37,2014-08-23 06:13:00,
2014-08-23 02:18:00,74.1,64.5,29.89,North,0,0.0,0.0,72,0.00,CLR,,0.00,WeatherDisplay:10.37,2014-08-23 06:18:00,
2014-08-23 02:23:00,73.9,63.9,29.89,North,0,0.0,0.0,71,0.00,CLR,,0.00,WeatherDisplay:10.37,2014-08-23 06:23:00,
2014-08-23 02:28:00,73.9,63.9,29.89,North,0,0.0,0.0,71,0.00,CLR,,0.00,WeatherDisplay:10.37,2014-08-23 06:28:00,
2014-08-23 02:33:00,73.8,63.8,29.89,North,0,0.0,0.0,71,0.00,CLR,,0.00,WeatherDisplay:10.37,2014-08-23 06:33:00,
2014-08-23 02:38:00,73.6,63.2,29.89,North,0,0.0,0.0,70,0.00,CLR,,0.00,WeatherDisplay:10.37,2014-08-23 06:38:00,
2014-08-23 02:43:00,73.4,63.0,29.89,North,0,0.0,0.0,70,0.00,CLR,,0.00,WeatherDisplay:10.37,2014-08-23 06:43:00,
2014-08-23 02:48:00,73.2,62.8,29.89,North,0,0.0,0.0,70,0.00,CLR,,0.00,WeatherDisplay:10.37,2014-08-23 06:48:00,
2014-08-23 02:53:00,73.2,62.8,29.89,North,0,0.0,0.0,70,0.00,CLR,,0.00,WeatherDisplay:10.37,2014-08-23 06:53:00,
2014-08-23 02:58:00,73.0,62.3,29.89,North,0,0.0,0.0,69,0.00,CLR,,0.00,WeatherDisplay:10.37,2014-08-23 06:58:00,
2014-08-23 03:03:00,73.0,62.3,29.89,North,0,0.0,0.0,69,0.00,CLR,,0.00,WeatherDisplay:10.37,2014-08-23 07:03:00,
2014-08-23 03:08:00,72.9,61.7,29.89,North,0,0.0,0.0,68,0.00,CLR,,0.00,WeatherDisplay:10.37,2014-08-23 07:08:00,
2014-08-23 03:13:00,72.9,62.1,29.89,North,0,0.0,0.0,69,0.00,CLR,,0.00,WeatherDisplay:10.37,2014-08-23 07:13:00,
2014-08-23 03:18:00,72.7,61.5,29.89,North,0,0.0,0.0,68,0.00,CLR,,0.00,WeatherDisplay:10.37,2014-08-23 07:18:00,
2014-08-23 03:23:00,72.7,61.5,29.89,North,0,0.0,0.0,68,0.00,CLR,,0.00,WeatherDisplay:10.37,2014-08-23 07:23:00,
2014-08-23 03:28:00,72.7,61.5,29.89,North,0,0.0,0.0,68,0.00,CLR,,0.00,WeatherDisplay:10.37,2014-08-23 07:28:00,
2014-08-23 03:33:00,72.7,61.5,29.89,North,0,0.0,0.0,68,0.00,CLR,,0.00,WeatherDisplay:10.37,2014-08-23 07:33:00,
2014-08-23 03:38:00,72.7,61.1,29.89,North,0,0.0,0.0,67,0.00,CLR,,0.00,WeatherDisplay:10.37,2014-08-23 07:38:00,
2014-08-23 03:43:00,72.7,60.7,29.89,North,0,0.0,0.0,66,0.00,CLR,,0.00,WeatherDisplay:10.37,2014-08-23 07:43:00,
2014-08-23 03:48:00,72.5,60.9,29.89,North,0,0.0,0.0,67,0.00,CLR,,0.00,WeatherDisplay:10.37,2014-08-23 07:48:00,
2014-08-23 03:53:00,72.5,60.5,29.89,North,0,0.0,0.0,66,0.00,CLR,,0.00,WeatherDisplay:10.37,2014-08-23 07:53:00,
2014-08-23 03:58:00,72.3,60.3,29.89,North,0,0.0,0.0,66,0.00,CLR,,0.00,WeatherDisplay:10.37,2014-08-23 07:58:00,
2014-08-23 04:03:00,72.3,60.3,29.89,North,0,0.0,0.0,66,0.00,CLR,,0.00,WeatherDisplay:10.37,2014-08-23 08:03:00,
2014-08-23 04:08:00,72.1,60.2,29.89,North,0,0.0,0.0,66,0.00,CLR,,0.00,WeatherDisplay:10.37,2014-08-23 08:08:00,
2014-08-23 04:13:00,72.1,60.2,29.89,North,0,0.0,0.0,66,0.00,CLR,,0.00,WeatherDisplay:10.37,2014-08-23 08:13:00,
2014-08-23 04:18:00,72.0,60.0,29.89,North,0,0.0,0.0,66,0.00,CLR,,0.00,WeatherDisplay:10.37,2014-08-23 08:18:00,